sat.trackr.live / text

‹ back to catalog

STARLINK-6371

NORAD 57381 · 2023-099BF

PAYLOAD ACTIVE UNKNOWN

§ Identity

Operator
Country
US
Launch date
2023-07-16
Launch site
AFETR
Launch vehicle
Mass (kg)
RCS (m²)

Purposes: comms

External: N2YO · Heavens-Above · Gunter

§ Orbital elements

Epoch: 2026-05-25T00:50:42.277056Z

Period
94.27 min
Inclination
43.0026°
Eccentricity
0.0001036
Mean motion
15.27581229 rev/d
Perigee alt
482.3 km
Apogee alt
483.8 km
Semi-major
6,861.2 km
B*
5.5072e-5
RAAN
152.5308°
Arg perigee
285.7346°
Mean anomaly
74.3392°
Rev number
15,882

§ Raw data

STARLINK-63711 57381U 23099BF  26145.03521154  .00001254  00000+0  55072-4 0  99902 57381  43.0026 152.5308 0001036 285.7346  74.3392 15.27581229158824

JSON: /api/v1/satellites/57381 · /tle

For live sub-satellite position, see the globe view (requires WebGL).

§ Visibility from observer

Set your observer location to see the next 7 days of passes ≥ 10°. The values pass through the URL so the page stays shareable.

No JS? Fill the form by hand. The geolocation button needs JavaScript.